FFT7 KMCO-KSTL

Flight info

Callsign FFT7
Flight time 2h 3m
Altitude 34000
Route RDSOX1 JFRYS PATOY Q116 VLKNN GETME J151 VISQA BOOSH3
Aircraft A21N/M-SDE2E3FGHIRWXY/LB1

Departure

Time 2026-04-24 00:35
Airport Orlando International Airport (KMCO)

Arrival

Time 2026-04-24 02:39
Airport St. Louis Lambert International Airport (KSTL)
Time Latitude Longitude Altitude Speed Heading
2026-04-23 23:55 28.43625 -81.31467 100 ft 0 kts 232°
2026-04-24 00:23 28.43633 -81.31455 100 ft 4 kts 233°
2026-04-24 00:24 28.43649 -81.31430 101 ft 4 kts 234°
2026-04-24 00:24 28.43661 -81.31410 101 ft 4 kts 237°
2026-04-24 00:24 28.43674 -81.31384 102 ft 4 kts 248°
2026-04-24 00:24 28.43682 -81.31355 102 ft 5 kts 263°
2026-04-24 00:25 28.43683 -81.31342 99 ft 2 kts 269°
2026-04-24 00:30 28.43683 -81.31346 99 ft 2 kts 269°
2026-04-24 00:30 28.43685 -81.31382 102 ft 7 kts 276°
2026-04-24 00:30 28.43697 -81.31450 103 ft 11 kts 281°
2026-04-24 00:30 28.43706 -81.31550 105 ft 15 kts 270°
2026-04-24 00:31 28.43774 -81.31650 109 ft 18 kts 323°
2026-04-24 00:31 28.43844 -81.31762 105 ft 16 kts 265°
2026-04-24 00:31 28.43894 -81.31845 104 ft 16 kts 345°
2026-04-24 00:31 28.44008 -81.31881 104 ft 18 kts 342°
2026-04-24 00:32 28.44137 -81.31900 103 ft 19 kts 358°
2026-04-24 00:32 28.44273 -81.31901 103 ft 19 kts 357°
2026-04-24 00:32 28.44412 -81.31903 103 ft 20 kts 358°
2026-04-24 00:32 28.44556 -81.31906 103 ft 21 kts 357°
2026-04-24 00:33 28.44709 -81.31906 103 ft 22 kts 358°
2026-04-24 00:33 28.44820 -81.31948 101 ft 19 kts 280°
2026-04-24 00:33 28.44822 -81.32097 102 ft 18 kts 268°
2026-04-24 00:33 28.44810 -81.32227 102 ft 17 kts 200°
2026-04-24 00:34 28.44774 -81.32232 102 ft 0 kts 178°
2026-04-24 00:34 28.44637 -81.32228 103 ft 53 kts 179°
2026-04-24 00:35 28.44025 -81.32223 106 ft 120 kts 179°
2026-04-24 00:35 28.43009 -81.32213 104 ft 170 kts 177°
2026-04-24 00:35 28.41819 -81.32240 645 ft 167 kts 176°
2026-04-24 00:35 28.40661 -81.32284 1268 ft 168 kts 178°
2026-04-24 00:36 28.39438 -81.32403 1677 ft 187 kts 189°
2026-04-24 00:36 28.38224 -81.33108 2202 ft 207 kts 212°
2026-04-24 00:36 28.37022 -81.34156 2600 ft 229 kts 204°
2026-04-24 00:36 28.35530 -81.34948 3058 ft 249 kts 201°
2026-04-24 00:37 28.33986 -81.35942 3710 ft 264 kts 220°
2026-04-24 00:37 28.32755 -81.37518 4582 ft 268 kts 229°
2026-04-24 00:37 28.31587 -81.39173 5512 ft 270 kts 231°
2026-04-24 00:37 28.30404 -81.40834 6420 ft 271 kts 231°
2026-04-24 00:38 28.29205 -81.42498 7284 ft 272 kts 231°
2026-04-24 00:38 28.27995 -81.44166 8080 ft 275 kts 231°
2026-04-24 00:38 28.27181 -81.45284 8589 ft 278 kts 231°
2026-04-24 00:38 28.25939 -81.46982 9375 ft 282 kts 231°
2026-04-24 00:39 28.24677 -81.48702 10156 ft 285 kts 232°
2026-04-24 00:39 28.22931 -81.51083 10649 ft 309 kts 231°
2026-04-24 00:39 28.21512 -81.53015 10911 ft 329 kts 231°
2026-04-24 00:39 28.20004 -81.55066 11159 ft 348 kts 231°
2026-04-24 00:40 28.18935 -81.56519 11313 ft 361 kts 231°
2026-04-24 00:40 28.17284 -81.58760 11580 ft 378 kts 231°
2026-04-24 00:40 28.15602 -81.61044 12054 ft 385 kts 231°
2026-04-24 00:40 28.13881 -81.63390 12666 ft 388 kts 233°
2026-04-24 00:41 28.12520 -81.66024 13268 ft 389 kts 250°
2026-04-24 00:41 28.11936 -81.69002 13919 ft 389 kts 266°
2026-04-24 00:41 28.12124 -81.72058 14470 ft 391 kts 282°
2026-04-24 00:41 28.13060 -81.74949 14982 ft 395 kts 297°
2026-04-24 00:42 28.14700 -81.77454 15499 ft 400 kts 314°
2026-04-24 00:42 28.16952 -81.79341 16040 ft 407 kts 330°
2026-04-24 00:42 28.19551 -81.80677 16604 ft 412 kts 335°
2026-04-24 00:42 28.22200 -81.81933 17166 ft 415 kts 335°
2026-04-24 00:43 28.24883 -81.83221 17709 ft 419 kts 335°
2026-04-24 00:43 28.27539 -81.84522 18249 ft 423 kts 334°
2026-04-24 00:43 28.30244 -81.85860 18720 ft 426 kts 334°
2026-04-24 00:43 28.33006 -81.87232 19207 ft 429 kts 334°
2026-04-24 00:44 28.35671 -81.88671 19679 ft 429 kts 328°
2026-04-24 00:44 28.38109 -81.90627 20134 ft 430 kts 317°
2026-04-24 00:44 28.40124 -81.93127 20585 ft 430 kts 305°
2026-04-24 00:44 28.41617 -81.96064 21031 ft 431 kts 293°
2026-04-24 00:45 28.42523 -81.99311 21480 ft 431 kts 281°
2026-04-24 00:45 28.42825 -82.02707 21955 ft 434 kts 271°
2026-04-24 00:45 28.42870 -82.06145 22412 ft 436 kts 270°
2026-04-24 00:45 28.42896 -82.09599 22851 ft 439 kts 271°
2026-04-24 00:46 28.42933 -82.13079 23284 ft 442 kts 271°
2026-04-24 00:46 28.42980 -82.16600 23715 ft 445 kts 271°
2026-04-24 00:46 28.43031 -82.20123 24109 ft 447 kts 271°
2026-04-24 00:46 28.43084 -82.23666 24487 ft 449 kts 271°
2026-04-24 00:47 28.43136 -82.27218 24872 ft 450 kts 270°
2026-04-24 00:47 28.43186 -82.30737 25244 ft 451 kts 270°
2026-04-24 00:47 28.43237 -82.34289 25719 ft 449 kts 270°
2026-04-24 00:47 28.43301 -82.37830 26205 ft 447 kts 271°
2026-04-24 00:48 28.43696 -82.41324 26693 ft 446 kts 281°
2026-04-24 00:48 28.44665 -82.44662 27185 ft 446 kts 291°
2026-04-24 00:48 28.46205 -82.47728 27657 ft 449 kts 303°
2026-04-24 00:48 28.48259 -82.50403 28138 ft 451 kts 313°
2026-04-24 00:49 28.50752 -82.52595 28567 ft 455 kts 323°
2026-04-24 00:49 28.53470 -82.54441 28998 ft 455 kts 326°
2026-04-24 00:49 28.56205 -82.56236 29407 ft 454 kts 326°
2026-04-24 00:49 28.58938 -82.58040 29827 ft 453 kts 325°
2026-04-24 00:50 28.61660 -82.59856 30197 ft 452 kts 325°
2026-04-24 00:50 28.64335 -82.61644 30513 ft 452 kts 324°
2026-04-24 00:50 28.67078 -82.63481 30832 ft 451 kts 324°
2026-04-24 00:50 28.69743 -82.65269 31144 ft 450 kts 324°
2026-04-24 00:51 28.72444 -82.67083 31456 ft 450 kts 324°
2026-04-24 00:51 28.75136 -82.68893 31761 ft 449 kts 324°
2026-04-24 00:51 28.77828 -82.70704 32066 ft 449 kts 324°
2026-04-24 00:51 28.80517 -82.72513 32331 ft 448 kts 323°
2026-04-24 00:52 28.83202 -82.74321 32611 ft 448 kts 323°
2026-04-24 00:52 28.85885 -82.76126 32876 ft 448 kts 323°
2026-04-24 00:52 28.88570 -82.77935 33132 ft 447 kts 323°
2026-04-24 00:52 28.91249 -82.79744 33443 ft 445 kts 323°
2026-04-24 00:53 28.93911 -82.81541 33730 ft 444 kts 323°
2026-04-24 00:53 28.96572 -82.83338 33968 ft 444 kts 323°
2026-04-24 00:53 28.99241 -82.85141 34095 ft 444 kts 322°
2026-04-24 00:53 29.01861 -82.86913 34097 ft 444 kts 322°
2026-04-24 00:54 29.07139 -82.90589 34083 ft 441 kts 321°
2026-04-24 00:54 29.12149 -82.94656 34069 ft 441 kts 321°
2026-04-24 00:55 29.17157 -82.98752 34066 ft 441 kts 321°
2026-04-24 00:55 29.22154 -83.02838 34072 ft 441 kts 321°
2026-04-24 00:56 29.27119 -83.06902 34066 ft 442 kts 321°
2026-04-24 00:56 29.32121 -83.11000 34065 ft 442 kts 321°
2026-04-24 00:57 29.37120 -83.15108 34069 ft 442 kts 323°
2026-04-24 00:58 29.44672 -83.21314 34064 ft 445 kts 325°
2026-04-24 00:58 29.49704 -83.25459 34068 ft 445 kts 325°
2026-04-24 00:59 29.54708 -83.29584 34062 ft 445 kts 325°
2026-04-24 00:59 29.59740 -83.33736 34066 ft 445 kts 325°
2026-04-24 01:00 29.64771 -83.37896 34064 ft 445 kts 325°
2026-04-24 01:00 29.69792 -83.42061 34066 ft 446 kts 325°
2026-04-24 01:01 29.74824 -83.46233 34071 ft 446 kts 325°
2026-04-24 01:01 29.79858 -83.50410 34072 ft 446 kts 325°
2026-04-24 01:02 29.84894 -83.54593 34064 ft 446 kts 325°
2026-04-24 01:02 29.89888 -83.58750 34075 ft 445 kts 325°
2026-04-24 01:03 29.94917 -83.62916 34080 ft 445 kts 325°
2026-04-24 01:03 29.99948 -83.67099 34078 ft 446 kts 324°
2026-04-24 01:04 30.04988 -83.71301 34078 ft 446 kts 324°
2026-04-24 01:04 30.10022 -83.75505 34077 ft 446 kts 324°
2026-04-24 01:05 30.15050 -83.79707 34077 ft 446 kts 324°
2026-04-24 01:05 30.20080 -83.83924 34073 ft 446 kts 324°
2026-04-24 01:06 30.25067 -83.88110 34066 ft 446 kts 324°
2026-04-24 01:06 30.30102 -83.92343 34059 ft 447 kts 324°
2026-04-24 01:07 30.35130 -83.96573 34062 ft 447 kts 324°
2026-04-24 01:07 30.40157 -84.00810 34059 ft 447 kts 324°
2026-04-24 01:08 30.45185 -84.05050 34057 ft 447 kts 324°
2026-04-24 01:08 30.50210 -84.09297 34056 ft 447 kts 324°
2026-04-24 01:09 30.55201 -84.13512 34060 ft 447 kts 324°
2026-04-24 01:09 30.60227 -84.17767 34058 ft 447 kts 324°
2026-04-24 01:10 30.65242 -84.22026 34057 ft 447 kts 324°
2026-04-24 01:10 30.70259 -84.26285 34058 ft 447 kts 324°
2026-04-24 01:11 30.75279 -84.30550 34051 ft 446 kts 324°
2026-04-24 01:11 30.80275 -84.34806 34056 ft 445 kts 324°
2026-04-24 01:12 30.85276 -84.39065 34058 ft 446 kts 324°
2026-04-24 01:12 30.90279 -84.43337 34057 ft 446 kts 324°
2026-04-24 01:13 30.95287 -84.47620 34065 ft 446 kts 324°
2026-04-24 01:13 31.00288 -84.51909 34070 ft 446 kts 324°
2026-04-24 01:14 31.05253 -84.56158 34072 ft 446 kts 324°
2026-04-24 01:14 31.10254 -84.60448 34068 ft 446 kts 324°
2026-04-24 01:15 31.15259 -84.64747 34063 ft 446 kts 324°
2026-04-24 01:15 31.20255 -84.69045 34063 ft 445 kts 324°
2026-04-24 01:16 31.25246 -84.73350 34062 ft 445 kts 324°
2026-04-24 01:16 31.30236 -84.77652 34067 ft 445 kts 324°
2026-04-24 01:17 31.35219 -84.81957 34072 ft 445 kts 324°
2026-04-24 01:17 31.40199 -84.86266 34071 ft 445 kts 324°
2026-04-24 01:18 31.45156 -84.90564 34069 ft 446 kts 323°
2026-04-24 01:18 31.50146 -84.94891 34070 ft 446 kts 323°
2026-04-24 01:19 31.55135 -84.99222 34071 ft 446 kts 323°
2026-04-24 01:19 31.60113 -85.03565 34067 ft 446 kts 323°
2026-04-24 01:20 31.65081 -85.07913 34060 ft 444 kts 323°
2026-04-24 01:20 31.70012 -85.12239 34061 ft 444 kts 323°
2026-04-24 01:21 31.74986 -85.16602 34061 ft 446 kts 323°
2026-04-24 01:21 31.79960 -85.20977 34058 ft 446 kts 323°
2026-04-24 01:22 31.84928 -85.25348 34060 ft 446 kts 323°
2026-04-24 01:22 31.89870 -85.29706 34057 ft 446 kts 323°
2026-04-24 01:23 31.94838 -85.34093 34049 ft 446 kts 323°
2026-04-24 01:23 31.99808 -85.38482 34045 ft 446 kts 322°
2026-04-24 01:24 32.04770 -85.42878 34041 ft 446 kts 322°
2026-04-24 01:24 32.09723 -85.47268 34043 ft 445 kts 322°
2026-04-24 01:25 32.14676 -85.51669 34041 ft 445 kts 322°
2026-04-24 01:25 32.18789 -85.55321 34041 ft 445 kts 322°
2026-04-24 01:26 32.23736 -85.59721 34036 ft 445 kts 322°
2026-04-24 01:26 32.29487 -85.64846 34038 ft 446 kts 322°
2026-04-24 01:27 32.33637 -85.68553 34033 ft 446 kts 322°
2026-04-24 01:27 32.38569 -85.72961 34036 ft 446 kts 322°
2026-04-24 01:28 32.43526 -85.77395 34032 ft 446 kts 322°
2026-04-24 01:28 32.48484 -85.81832 34031 ft 446 kts 322°
2026-04-24 01:29 32.53439 -85.86282 34029 ft 446 kts 322°
2026-04-24 01:29 32.58389 -85.90730 34028 ft 447 kts 322°
2026-04-24 01:30 32.63316 -85.95166 34029 ft 447 kts 322°
2026-04-24 01:30 32.68269 -85.99641 34039 ft 447 kts 321°
2026-04-24 01:31 32.73219 -86.04115 34044 ft 447 kts 321°
2026-04-24 01:31 32.78179 -86.08601 34044 ft 447 kts 321°
2026-04-24 01:32 32.83131 -86.13086 34051 ft 447 kts 321°
2026-04-24 01:32 32.88080 -86.17575 34050 ft 448 kts 321°
2026-04-24 01:33 32.93033 -86.22071 34043 ft 447 kts 321°
2026-04-24 01:33 32.97989 -86.26561 34028 ft 447 kts 321°
2026-04-24 01:34 33.02907 -86.31027 34029 ft 447 kts 321°
2026-04-24 01:34 33.07852 -86.35538 34055 ft 447 kts 321°
2026-04-24 01:35 33.12795 -86.40047 34062 ft 447 kts 321°
2026-04-24 01:35 33.17730 -86.44574 34057 ft 447 kts 321°
2026-04-24 01:36 33.22675 -86.49110 34050 ft 447 kts 321°
2026-04-24 01:36 33.27614 -86.53642 34043 ft 447 kts 321°
2026-04-24 01:37 33.32513 -86.58142 34032 ft 447 kts 321°
2026-04-24 01:37 33.37444 -86.62674 34041 ft 447 kts 321°
2026-04-24 01:38 33.42370 -86.67205 34046 ft 447 kts 321°
2026-04-24 01:38 33.47305 -86.71750 34049 ft 447 kts 321°
2026-04-24 01:39 33.52236 -86.76294 34050 ft 447 kts 321°
2026-04-24 01:39 33.57160 -86.80849 34050 ft 447 kts 320°
2026-04-24 01:40 33.62081 -86.85411 34051 ft 447 kts 320°
2026-04-24 01:40 33.67027 -86.89958 34045 ft 448 kts 323°
2026-04-24 01:41 33.72232 -86.94087 34039 ft 449 kts 325°
2026-04-24 01:41 33.77427 -86.98167 34009 ft 449 kts 325°
2026-04-24 01:42 33.82656 -87.02278 34006 ft 449 kts 325°
2026-04-24 01:42 33.87887 -87.06399 34014 ft 449 kts 325°
2026-04-24 01:43 33.93124 -87.10537 33987 ft 449 kts 325°
2026-04-24 01:43 33.98323 -87.14646 33995 ft 449 kts 325°
2026-04-24 01:44 34.03556 -87.18788 34018 ft 449 kts 325°
2026-04-24 01:44 34.08783 -87.22931 34017 ft 449 kts 325°
2026-04-24 01:45 34.14008 -87.27078 34004 ft 449 kts 325°
2026-04-24 01:45 34.19225 -87.31223 34008 ft 449 kts 325°
2026-04-24 01:46 34.24455 -87.35389 33993 ft 449 kts 324°
2026-04-24 01:46 34.29643 -87.39528 33997 ft 449 kts 324°
2026-04-24 01:47 34.34861 -87.43695 33987 ft 449 kts 324°
2026-04-24 01:47 34.40086 -87.47870 33984 ft 449 kts 324°
2026-04-24 01:48 34.45310 -87.52054 33992 ft 450 kts 324°
2026-04-24 01:48 34.50524 -87.56236 33988 ft 449 kts 324°
2026-04-24 01:49 34.55703 -87.60399 33995 ft 449 kts 324°
2026-04-24 01:49 34.60913 -87.64592 33996 ft 449 kts 324°
2026-04-24 01:50 34.66122 -87.68786 33999 ft 449 kts 324°
2026-04-24 01:50 34.71324 -87.72988 34003 ft 449 kts 324°
2026-04-24 01:51 34.76526 -87.77191 33987 ft 449 kts 324°
2026-04-24 01:51 34.81720 -87.81396 33994 ft 449 kts 324°
2026-04-24 01:52 34.86921 -87.85617 33986 ft 449 kts 324°
2026-04-24 01:52 34.92090 -87.89811 33983 ft 449 kts 324°
2026-04-24 01:53 34.97281 -87.94030 33970 ft 449 kts 323°
2026-04-24 01:53 35.02481 -87.98267 33974 ft 449 kts 323°
2026-04-24 01:54 35.07679 -88.02508 33968 ft 449 kts 323°
2026-04-24 01:54 35.12878 -88.06757 33969 ft 449 kts 323°
2026-04-24 01:55 35.18025 -88.10986 33971 ft 448 kts 323°
2026-04-24 01:55 35.23199 -88.15225 33973 ft 447 kts 323°
2026-04-24 01:56 35.28374 -88.19458 33972 ft 447 kts 323°
2026-04-24 01:56 35.33547 -88.23705 33969 ft 447 kts 323°
2026-04-24 01:57 35.38707 -88.27957 33969 ft 447 kts 323°
2026-04-24 01:57 35.43877 -88.32219 33970 ft 447 kts 323°
2026-04-24 01:58 35.49001 -88.36455 33970 ft 447 kts 323°
2026-04-24 01:58 35.54162 -88.40723 33972 ft 447 kts 323°
2026-04-24 01:59 35.59321 -88.45001 33971 ft 447 kts 323°
2026-04-24 01:59 35.64468 -88.49281 33970 ft 443 kts 323°
2026-04-24 02:00 35.69552 -88.53514 33961 ft 441 kts 323°
2026-04-24 02:00 35.74629 -88.57746 33965 ft 441 kts 323°
2026-04-24 02:01 35.79708 -88.61999 33958 ft 441 kts 323°
2026-04-24 02:01 35.84740 -88.66223 33944 ft 441 kts 323°
2026-04-24 02:02 35.89808 -88.70496 33940 ft 441 kts 323°
2026-04-24 02:02 35.94883 -88.74755 33940 ft 441 kts 323°
2026-04-24 02:03 36.02514 -88.81114 33934 ft 441 kts 323°
2026-04-24 02:03 36.07593 -88.85386 33929 ft 441 kts 323°
2026-04-24 02:04 36.12646 -88.89649 33920 ft 438 kts 323°
2026-04-24 02:04 36.17686 -88.93910 33919 ft 438 kts 323°
2026-04-24 02:05 36.22719 -88.98173 33917 ft 438 kts 323°
2026-04-24 02:05 36.27752 -89.02459 33918 ft 439 kts 323°
2026-04-24 02:06 36.33163 -89.05933 33906 ft 442 kts 333°
2026-04-24 02:06 36.38780 -89.09094 33927 ft 442 kts 333°
2026-04-24 02:07 36.44383 -89.12261 33924 ft 442 kts 333°
2026-04-24 02:07 36.49946 -89.15413 33932 ft 442 kts 333°
2026-04-24 02:08 36.55537 -89.18594 33915 ft 442 kts 332°
2026-04-24 02:08 36.61132 -89.21780 33911 ft 442 kts 332°
2026-04-24 02:09 36.66717 -89.24974 33903 ft 443 kts 332°
2026-04-24 02:09 36.72338 -89.28188 33897 ft 444 kts 332°
2026-04-24 02:10 36.77953 -89.31414 33885 ft 444 kts 332°
2026-04-24 02:10 36.83556 -89.34637 33887 ft 443 kts 332°
2026-04-24 02:11 36.86352 -89.36243 33618 ft 440 kts 332°
2026-04-24 02:11 36.89144 -89.37845 33295 ft 443 kts 332°
2026-04-24 02:11 36.91951 -89.39468 33009 ft 444 kts 332°
2026-04-24 02:11 36.94725 -89.41071 32760 ft 446 kts 332°
2026-04-24 02:12 36.97543 -89.42693 32496 ft 447 kts 332°
2026-04-24 02:12 37.00373 -89.44324 32246 ft 447 kts 332°
2026-04-24 02:12 37.03204 -89.45951 31994 ft 448 kts 332°
2026-04-24 02:12 37.06032 -89.47585 31741 ft 449 kts 332°
2026-04-24 02:13 37.08878 -89.49228 31481 ft 450 kts 332°
2026-04-24 02:13 37.11716 -89.50871 31060 ft 448 kts 332°
2026-04-24 02:13 37.14541 -89.52509 30397 ft 446 kts 332°
2026-04-24 02:13 37.17318 -89.54120 29579 ft 443 kts 332°
2026-04-24 02:14 37.20108 -89.55738 28652 ft 440 kts 332°
2026-04-24 02:14 37.22883 -89.57334 27807 ft 437 kts 333°
2026-04-24 02:14 37.25674 -89.58861 27298 ft 445 kts 334°
2026-04-24 02:14 37.28568 -89.60444 26910 ft 458 kts 334°
2026-04-24 02:15 37.31455 -89.62018 26524 ft 447 kts 334°
2026-04-24 02:15 37.33371 -89.63061 26256 ft 440 kts 334°
2026-04-24 02:15 37.36133 -89.64566 25872 ft 438 kts 334°
2026-04-24 02:15 37.38938 -89.66099 25497 ft 439 kts 334°
2026-04-24 02:16 37.41736 -89.67632 25115 ft 438 kts 334°
2026-04-24 02:16 37.44509 -89.69151 24726 ft 434 kts 334°
2026-04-24 02:16 37.47280 -89.70664 24344 ft 432 kts 334°
2026-04-24 02:16 37.50033 -89.72176 23971 ft 430 kts 334°
2026-04-24 02:17 37.52764 -89.73675 23590 ft 428 kts 334°
2026-04-24 02:17 37.55483 -89.75164 23184 ft 420 kts 334°
2026-04-24 02:17 37.58123 -89.76612 22872 ft 405 kts 334°
2026-04-24 02:17 37.60634 -89.77980 22556 ft 391 kts 334°
2026-04-24 02:18 37.63088 -89.79335 22139 ft 380 kts 334°
2026-04-24 02:18 37.65479 -89.80664 21746 ft 371 kts 334°
2026-04-24 02:18 37.67811 -89.81958 21386 ft 362 kts 334°
2026-04-24 02:18 37.70095 -89.83221 21043 ft 354 kts 334°
2026-04-24 02:19 37.72342 -89.84463 20726 ft 352 kts 333°
2026-04-24 02:19 37.74585 -89.85701 20420 ft 351 kts 334°
2026-04-24 02:19 37.76825 -89.86934 20081 ft 348 kts 334°
2026-04-24 02:19 37.79030 -89.88147 19694 ft 342 kts 333°
2026-04-24 02:20 37.81193 -89.89342 19329 ft 336 kts 333°
2026-04-24 02:20 37.83348 -89.90537 18986 ft 343 kts 333°
2026-04-24 02:20 37.85537 -89.91748 18666 ft 343 kts 333°
2026-04-24 02:20 37.87701 -89.92941 18349 ft 342 kts 334°
2026-04-24 02:21 37.89888 -89.94115 18003 ft 341 kts 334°
2026-04-24 02:21 37.92072 -89.95277 17658 ft 339 kts 334°
2026-04-24 02:21 37.94274 -89.96451 17319 ft 339 kts 334°
2026-04-24 02:21 37.96523 -89.97676 17109 ft 359 kts 333°
2026-04-24 02:22 37.98762 -89.98942 16851 ft 354 kts 333°
2026-04-24 02:22 38.00993 -90.00212 16525 ft 349 kts 333°
2026-04-24 02:22 38.03196 -90.01462 16213 ft 345 kts 333°
2026-04-24 02:22 38.05409 -90.02717 15935 ft 356 kts 333°
2026-04-24 02:23 38.07670 -90.04001 15680 ft 356 kts 333°
2026-04-24 02:23 38.09924 -90.05281 15424 ft 355 kts 333°
2026-04-24 02:23 38.12176 -90.06561 15179 ft 354 kts 333°
2026-04-24 02:23 38.14415 -90.07828 14925 ft 350 kts 333°
2026-04-24 02:24 38.16634 -90.09062 14651 ft 346 kts 333°
2026-04-24 02:24 38.18838 -90.10288 14298 ft 343 kts 333°
2026-04-24 02:24 38.21043 -90.11514 13910 ft 348 kts 333°
2026-04-24 02:24 38.23265 -90.12748 13638 ft 348 kts 333°
2026-04-24 02:25 38.25467 -90.13977 13362 ft 344 kts 333°
2026-04-24 02:25 38.27618 -90.15181 13080 ft 339 kts 333°
2026-04-24 02:25 38.29770 -90.16390 12788 ft 336 kts 332°
2026-04-24 02:25 38.31896 -90.17580 12494 ft 332 kts 333°
2026-04-24 02:26 38.34000 -90.18759 12221 ft 328 kts 332°
2026-04-24 02:26 38.36080 -90.19929 11942 ft 325 kts 332°
2026-04-24 02:26 38.38121 -90.21076 11691 ft 314 kts 332°
2026-04-24 02:26 38.40079 -90.22177 11490 ft 303 kts 332°
2026-04-24 02:27 38.42000 -90.23262 11070 ft 303 kts 332°
2026-04-24 02:27 38.43926 -90.24349 10781 ft 301 kts 332°
2026-04-24 02:27 38.45824 -90.25417 10542 ft 296 kts 332°
2026-04-24 02:27 38.47694 -90.26473 10313 ft 292 kts 332°
2026-04-24 02:28 38.49537 -90.27514 10077 ft 287 kts 332°
2026-04-24 02:28 38.51353 -90.28538 9846 ft 283 kts 332°
2026-04-24 02:28 38.53142 -90.29548 9599 ft 279 kts 331°
2026-04-24 02:28 38.54901 -90.30544 9347 ft 275 kts 331°
2026-04-24 02:29 38.56649 -90.31531 9099 ft 275 kts 331°
2026-04-24 02:29 38.58396 -90.32522 8617 ft 278 kts 331°
2026-04-24 02:29 38.60203 -90.33549 8195 ft 290 kts 332°
2026-04-24 02:29 38.62027 -90.34551 7997 ft 280 kts 332°
2026-04-24 02:30 38.63759 -90.35523 7951 ft 262 kts 327°
2026-04-24 02:30 38.65222 -90.36799 7936 ft 248 kts 304°
2026-04-24 02:30 38.66160 -90.38608 7870 ft 243 kts 293°
2026-04-24 02:30 38.67000 -90.40485 7761 ft 243 kts 293°
2026-04-24 02:31 38.67859 -90.42357 7659 ft 243 kts 294°
2026-04-24 02:31 38.68734 -90.44219 7542 ft 243 kts 295°
2026-04-24 02:31 38.69603 -90.46044 7418 ft 243 kts 295°
2026-04-24 02:31 38.70496 -90.47904 7299 ft 242 kts 295°
2026-04-24 02:32 38.71371 -90.49718 7173 ft 242 kts 295°
2026-04-24 02:32 38.72257 -90.51552 7042 ft 242 kts 294°
2026-04-24 02:32 38.73143 -90.53383 6737 ft 241 kts 294°
2026-04-24 02:32 38.74030 -90.55211 6334 ft 243 kts 294°
2026-04-24 02:33 38.74926 -90.57046 5968 ft 243 kts 296°
2026-04-24 02:33 38.76126 -90.58587 5673 ft 250 kts 322°
2026-04-24 02:33 38.77770 -90.59293 5423 ft 252 kts 351°
2026-04-24 02:33 38.79496 -90.58973 5065 ft 254 kts 22°
2026-04-24 02:34 38.80926 -90.57697 4652 ft 249 kts 53°
2026-04-24 02:34 38.81886 -90.55895 4271 ft 242 kts 67°
2026-04-24 02:34 38.82651 -90.53988 3909 ft 235 kts 74°
2026-04-24 02:34 38.82945 -90.52099 3704 ft 197 kts 109°
2026-04-24 02:35 38.82425 -90.50696 3548 ft 161 kts 138°
2026-04-24 02:35 38.81759 -90.49623 3344 ft 149 kts 140°
2026-04-24 02:35 38.81157 -90.48590 3021 ft 141 kts 138°
2026-04-24 02:35 38.80606 -90.47559 2632 ft 139 kts 136°
2026-04-24 02:36 38.80055 -90.46501 2365 ft 141 kts 135°
2026-04-24 02:36 38.79546 -90.45493 2168 ft 132 kts 134°
2026-04-24 02:36 38.79057 -90.44506 1982 ft 131 kts 134°
2026-04-24 02:36 38.78578 -90.43534 1809 ft 130 kts 134°
2026-04-24 02:37 38.78096 -90.42553 1639 ft 130 kts 133°
2026-04-24 02:37 38.77615 -90.41574 1463 ft 129 kts 133°
2026-04-24 02:37 38.77135 -90.40599 1293 ft 128 kts 131°
2026-04-24 02:37 38.76649 -90.39634 1157 ft 130 kts 129°
2026-04-24 02:38 38.76160 -90.38640 971 ft 133 kts 127°
2026-04-24 02:38 38.75673 -90.37622 775 ft 134 kts 128°
2026-04-24 02:38 38.75172 -90.36610 599 ft 135 kts 127°
2026-04-24 02:38 38.74718 -90.35695 583 ft 96 kts 121°
2026-04-24 02:39 38.74521 -90.35293 589 ft 18 kts 122°
2026-04-24 02:39 38.74433 -90.35129 588 ft 27 kts 127°
2026-04-24 02:39 38.74289 -90.34949 593 ft 23 kts 149°
2026-04-24 02:39 38.74178 -90.34887 597 ft 18 kts 150°
2026-04-24 02:40 38.74070 -90.34851 599 ft 16 kts 194°
2026-04-24 02:40 38.73964 -90.34928 597 ft 20 kts 210°
2026-04-24 02:40 38.73835 -90.35034 598 ft 22 kts 211°
2026-04-24 02:40 38.73792 -90.35082 596 ft 0 kts 249°
2026-04-24 02:41 38.73792 -90.35088 596 ft 3 kts 269°
2026-04-24 02:41 38.73806 -90.35132 595 ft 8 kts 297°
2026-04-24 02:41 38.73847 -90.35214 593 ft 14 kts 304°
2026-04-24 02:42 38.73908 -90.35335 587 ft 19 kts 301°
2026-04-24 02:42 38.73971 -90.35466 584 ft 19 kts 297°
2026-04-24 02:42 38.74039 -90.35623 580 ft 22 kts 247°
2026-04-24 02:42 38.73925 -90.35727 578 ft 19 kts 232°
2026-04-24 02:43 38.73894 -90.35885 580 ft 20 kts 292°
2026-04-24 02:43 38.73969 -90.36054 578 ft 22 kts 299°
2026-04-24 02:43 38.74028 -90.36180 577 ft 15 kts 300°
2026-04-24 02:43 38.74075 -90.36265 579 ft 11 kts 330°
2026-04-24 02:44 38.74117 -90.36239 574 ft 7 kts 36°
2026-04-24 02:44 38.74143 -90.36217 573 ft 0 kts 31°
2026-04-24 02:44 38.74154 -90.36208 575 ft 1 kts 31°
2026-04-24 02:44 38.74155 -90.36208 575 ft 0 kts 31°